Regional Weather Roundup
Issued by NWS

Home | Current Version | Previous Version | Graphics & Text | Print | Product List | Glossary On
Versions: 1 2 3 4 5 6 7 8 9 10 11 12 13 14 15 16 17 18 19 20 21 22 23 24 25 26 27 28 29 30 31 32 33 34 35 36 37 38 39 40 41 42 43 44 45 46 47 48 49 50
986
ASUS43 KLMK 202310
RWRKY
KENTUCKY REGIONAL WEATHER ROUNDUP
NATIONAL WEATHER SERVICE LOUISVILLE KY
600 PM EST SAT JAN 20 2018

NOTE "FAIR" INDICATES FEW OR NO CLOUDS BELOW 12,000 FEET
WITH NO SIGNIFICANT WEATHER AND/OR OBSTRUCTIONS TO VISIBILITY.

KYZ001>023-026-027-061>063-070>075-210000-
WESTERN AND SOUTH CENTRAL KENTUCKY

CITY           SKY/WX    TMP DP  RH WIND       PRES   REMARKS
PADUCAH        CLOUDY    45  33  63 S6        30.07F
HENDERSON      CLOUDY    43  36  76 S8        30.11R
OWENSBORO      CLOUDY    43  35  73 S7        30.12S
HOPKINSVILLE   CLOUDY    44  37  74 CALM      30.12R
BOWLING GREEN  CLOUDY    53  45  74 CALM      30.14S
GLASGOW        CLOUDY    50  41  69 CALM      30.15S
$$

KYZ024-025-028>034-038-045-046-053-210000-
NORTH CENTRAL KENTUCKY

CITY           SKY/WX    TMP DP  RH WIND       PRES   REMARKS
LOUISVILLE/SDF CLOUDY    50  44  80 S7        30.12S
LOUISVILLE/LOU CLOUDY    50  45  83 SW9       30.13R
FORT KNOX      CLOUDY    46  40  81 S7        30.12R
$$

KYZ035>037-039>044-047>052-055>060-089>105-210000-
NORTHEAST KENTUCKY

CITY           SKY/WX    TMP DP  RH WIND       PRES   REMARKS
LEXINGTON      CLOUDY    49  40  71 S9        30.14S
COVINGTON      NOT AVBL
FRANKFORT      CLOUDY    49  38  65 S7        30.12R
$$

KYZ054-064>069-076>088-106>120-210000-
SOUTHEAST KENTUCKY

CITY           SKY/WX    TMP DP  RH WIND       PRES   REMARKS
JACKSON        CLOUDY    51  38  60 S3        30.15S
LONDON         CLOUDY    53  36  52 CALM      30.17R
SOMERSET       CLOUDY    52  39  62 CALM      30.18S
MIDDLESBORO    CLOUDY    47  35  61 CALM      30.20S
MONTICELLO     CLOUDY    51  37  58 NE9       30.19R
$$





USA.gov is the U.S. government's official web portal to all federal, state and local government web resources and services.